{"data":{"norad_id":43927,"epoch":"2026-09-19T20:32:58.874208Z","epoch_age_seconds":71064,"freshness":"FRESH","line1":"1 43927U 19002F   26262.85623697  .00000128  00000+0  38471-4 0  9998","line2":"2 43927  86.3971 314.0194 0002278  94.6675 265.4781 14.34218799402534","mean_motion":14.34218799,"eccentricity":0.0002278,"inclination_deg":86.3971,"raan_deg":314.0194,"arg_perigee_deg":94.6675,"mean_anomaly_deg":265.4781,"bstar":3.8471e-5,"rev_number":40253,"period_min":100.40309058869,"perigee_km":776.03357375029,"apogee_km":779.29375653333,"semimajor_km":7155.8006651418,"source":"CELESTRAK","updated_at":"2026-09-20T09:00:36.355971Z"}}